Live-Position
3D-Globus wird geladen...
Über Starlink 5176
Group: 3 satellites
Beschreibung wird geladen...
Nächste Überflüge
Passes for default location (London). Set your location on the main map for personalized predictions.
Höhenverlauf
Loading altitude history...
No altitude history available
Zweizeiliger Elementsatz
1 54053U 22136C 26124.61351303 -.00000366 00000-0 -48950-5 0 9996
2 54053 53.2171 93.2757 0001303 84.5058 275.6082 15.08838105195282
Epoch: 4. Mai 2026 •
Age: 15 hours
Aktueller Status
Höhe 546.7 km
Geschwindigkeit 7.59 km/s
Subsatellitenpunkt -22.85°S,
23.74°W
Startdatum 20. Okt. 2022
Alter 3.5 years
Typ internet
Startgruppe
Falcon 9 •
Group 4-36 •
47 satellites
Starlink 5195
54051
Starlink 5189 54052
Starlink 5163 54054
Starlink 5158 54055
Starlink 5226 54056
Starlink 5167 54058
Starlink 5173 54059
Starlink 5169 54060
Starlink 5209 54061
Starlink 5170 54062
Starlink 5172 54064
Starlink 5187 54065
Starlink 5151 54066
Starlink 5174 54067
Starlink 5222 54068
Starlink 5181 54070
Starlink 5168 54071
Starlink 5146 54073
Starlink 5192 54074
Starlink 5212 54075
...and 26 more
Technische Details
Klassifizierung Payload
Masse 305.00 kg
Trockenmasse 290.00 kg
Gesamtmasse 305.00 kg
Länge 0.20 m
Durchmesser 2.80 m
Spannweite 9.00 m
Form Box + pan
Hersteller SPXS
Bus-Typ Starlink
Phasenstatus In Orbit
Besitzer/Staat SPXS/US
Most Searched
Loading...